START_TIME,STEP,MOV.,M29,t_acc.,H22,t_acc.,H26,t_acc.,H30,t_acc.
1979-07-12 15:00:32.280 ,1,0,0.,24.0,0.,24.0,0.,24.0,0.,24.0
1979-07-12 15:00:56.280 ,2,1,0.,24.0,0.,24.0,0.,24.0,0.,24.0
1979-07-12 15:01:20.280 ,2,0,0.,24.0,0.,24.0,0.,24.0,0.,24.0
1979-07-12 15:01:44.280 ,3,1,0.,24.0,0.,24.0,0.,24.0,0.,24.0
1979-07-12 15:02:08.280 ,3,0,0.,24.0,0.,24.0,0.,24.0,0.,24.0
1979-07-12 15:02:32.280 ,4,1,0.,24.0,0.,24.0,0.,24.0,0.,24.0
1979-07-12 15:02:56.280 ,4,0,0.,24.0,0.,24.0,0.,24.0,0.,24.0
1979-07-12 15:03:20.280 ,5,1,0.,24.0,0.,24.0,0.,24.0,0.,24.0
1979-07-12 15:03:44.280 ,5,0,0.,24.0,0.,24.0,0.,24.0,0.,24.0
1979-07-12 15:04:08.280 ,6,1,0.,24.0,0.,24.0,0.,24.0,0.,24.0
1979-07-12 15:04:32.280 ,6,0,0.,24.0,0.,24.0,0.,24.0,0.,24.0
1979-07-12 15:04:56.280 ,7,1,0.,24.0,0.,24.0,0.,24.0,0.,24.0
1979-07-12 15:05:20.280 ,7,0,0.,24.0,0.,24.0,0.,24.0,0.,24.0
1979-07-12 15:05:44.280 ,7,1,0.,24.0,0.,24.0,0.,24.0,0.,24.0
1979-07-12 15:06:08.280 ,7,0,0.,24.0,0.,24.0,0.,24.0,0.,24.0
1979-07-12 15:06:32.280 ,6,1,0.,24.0,0.,24.0,0.,24.0,0.,24.0
1979-07-12 15:06:56.280 ,6,0,0.,24.0,0.,24.0,0.,24.0,0.,24.0
1979-07-12 15:07:20.280 ,5,1,0.,24.0,0.,24.0,0.,24.0,0.,24.0
1979-07-12 15:07:44.280 ,5,0,0.,24.0,0.,24.0,0.,24.0,0.,24.0
1979-07-12 15:08:08.280 ,4,1,0.,24.0,0.,24.0,0.,24.0,0.,24.0
1979-07-12 15:08:32.280 ,0,0,0.,24.0,0.,24.0,0.,24.0,0.,24.0
1979-07-12 15:08:56.280 ,3,1,0.,24.0,0.,24.0,0.,24.0,0.,24.0
1979-07-12 15:09:20.280 ,3,0,0.,24.0,0.,24.0,0.,24.0,0.,24.0
1979-07-12 15:09:44.280 ,2,1,0.,24.0,0.,24.0,0.,24.0,0.,24.0
1979-07-12 15:10:08.280 ,2,0,0.,24.0,0.,24.0,0.,24.0,0.,24.0
1979-07-12 15:10:32.280 ,1,1,0.,24.0,0.,24.0,0.,24.0,0.,24.0
1979-07-12 15:10:56.280 ,1,0,0.,24.0,0.,24.0,0.,24.0,0.,24.0
1979-07-12 15:11:20.280 ,0,1,0.,24.0,0.,24.0,0.,24.0,0.,24.0
1979-07-12 15:11:44.280 ,0,0,0.,24.0,0.,24.0,0.,24.0,0.,24.0
1979-07-12 15:12:08.280 ,0,1,0.,24.0,0.,24.0,0.,24.0,0.,24.0
1979-07-12 15:12:32.280 ,0,0,0.,24.0,0.,24.0,0.,24.0,0.,24.0
1979-07-12 15:12:56.280 ,1,1,0.,24.0,0.,24.0,0.,24.0,0.,24.0
1979-07-12 15:13:20.280 ,1,0,0.,24.0,0.,24.0,0.,24.0,0.,24.0
1979-07-12 15:13:44.280 ,2,1,0.,24.0,0.,24.0,0.,24.0,0.,24.0
1979-07-12 15:14:08.280 ,2,0,0.,24.0,0.,24.0,0.,24.0,0.,24.0
1979-07-12 15:14:32.280 ,3,1,0.,24.0,0.,24.0,0.,24.0,0.,24.0
1979-07-12 15:14:56.280 ,3,0,0.,24.0,0.,24.0,0.,24.0,0.,24.0
1979-07-12 15:15:20.280 ,4,1,0.,24.0,0.,24.0,0.,24.0,0.,24.0
1979-07-12 15:15:44.280 ,4,0,0.,24.0,0.,24.0,0.,24.0,0.,24.0
1979-07-12 15:16:08.280 ,5,1,0.,24.0,0.,24.0,0.,24.0,0.,24.0
1979-07-12 15:16:32.280 ,5,0,0.,24.0,0.,24.0,0.,24.0,0.,24.0
1979-07-12 15:16:56.280 ,6,1,0.,24.0,0.,24.0,0.,24.0,0.,24.0
1979-07-12 15:17:20.280 ,6,0,0.,24.0,0.,24.0,0.,24.0,0.,24.0
1979-07-12 15:17:44.280 ,7,1,0.,24.0,0.,24.0,0.,24.0,0.,24.0
1979-07-12 15:18:08.280 ,7,0,0.,24.0,0.,24.0,0.,24.0,0.,24.0
1979-07-12 15:18:32.280 ,7,1,0.,24.0,0.,24.0,0.,24.0,0.,24.0
1979-07-12 15:18:56.280 ,7,0,0.,24.0,0.,24.0,0.,24.0,0.,24.0
1979-07-12 15:19:20.280 ,6,1,0.,24.0,0.,24.0,0.,24.0,0.,24.0
1979-07-12 15:19:44.280 ,6,0,0.,24.0,0.,24.0,0.,24.0,0.,24.0
1979-07-12 15:20:08.280 ,5,1,0.,24.0,0.,24.0,0.,24.0,0.,24.0
1979-07-12 15:20:32.280 ,5,0,0.,24.0,0.,24.0,0.,24.0,0.,24.0
1979-07-12 15:21:44.280 ,0,0,0.,24.0,0.,24.0,0.,24.0,0.,24.0
1979-07-12 15:22:08.280 ,0,0,0.,24.0,0.,24.0,0.,24.0,0.,24.0
1979-07-12 15:22:32.280 ,2,1,0.,24.0,0.,24.0,0.,24.0,0.,24.0
1979-07-12 15:22:56.280 ,2,0,0.,24.0,0.,24.0,0.,24.0,0.,24.0
1979-07-12 15:23:20.280 ,1,1,0.,24.0,0.,24.0,0.,24.0,0.,24.0
1979-07-12 15:23:44.280 ,1,0,0.,24.0,0.,24.0,0.,24.0,0.,24.0
1979-07-12 15:24:08.280 ,0,1,0.,24.0,0.,24.0,0.,24.0,0.,24.0
1979-07-12 15:24:32.280 ,0,0,0.,24.0,0.,24.0,0.,24.0,0.,24.0
1979-07-12 15:24:56.280 ,0,1,0.,24.0,0.,24.0,0.,24.0,0.,24.0
1979-07-12 15:25:20.280 ,0,0,0.,24.0,0.,24.0,0.,24.0,0.,24.0
1979-07-12 15:25:44.280 ,1,1,0.,24.0,0.,24.0,0.,24.0,0.,24.0
1979-07-12 15:26:08.280 ,1,0,0.,24.0,0.,24.0,0.,24.0,0.,24.0
1979-07-12 15:26:32.280 ,2,1,0.,24.0,0.,24.0,0.,24.0,0.,24.0
1979-07-12 15:26:56.280 ,2,0,0.,24.0,0.,24.0,0.,24.0,0.,24.0
1979-07-12 15:27:20.280 ,3,1,0.,24.0,0.,24.0,0.,24.0,0.,24.0
1979-07-12 15:27:44.280 ,3,0,0.,24.0,0.,24.0,0.,24.0,0.,24.0
1979-07-12 15:28:08.280 ,4,1,0.,24.0,0.,24.0,0.,24.0,0.,24.0
1979-07-12 15:28:32.280 ,4,0,0.,24.0,0.,24.0,0.,24.0,0.,24.0
1979-07-12 15:28:56.280 ,5,1,0.,24.0,0.,24.0,0.,24.0,0.,24.0
1979-07-12 15:29:20.280 ,5,0,0.,24.0,0.,24.0,0.,24.0,0.,24.0
1979-07-12 15:29:44.280 ,6,1,0.,24.0,0.,24.0,0.,24.0,0.,24.0
1979-07-12 15:30:08.280 ,6,0,0.,24.0,0.,24.0,0.,24.0,0.,24.0
1979-07-12 15:30:32.280 ,7,0,0.,24.0,0.,24.0,0.,24.0,0.,24.0
1979-07-12 15:30:56.280 ,7,0,0.,24.0,0.,24.0,0.,24.0,0.,24.0
1979-07-12 15:31:20.280 ,5,1,0.,24.0,0.,24.0,0.,24.0,0.,24.0
1979-07-12 15:31:44.280 ,1,1,0.,24.0,0.,24.0,0.,24.0,0.,24.0
1979-07-12 15:32:08.280 ,2,1,0.,24.0,0.,24.0,0.,24.0,0.,24.0
1979-07-12 15:32:32.280 ,6,1,0.,24.0,0.,24.0,0.,24.0,0.,24.0
1979-07-12 15:32:56.280 ,5,1,0.,24.0,0.,24.0,0.,24.0,0.,24.0
1979-07-12 15:33:20.280 ,1,1,0.,24.0,0.,24.0,0.,24.0,0.,24.0
1979-07-12 15:33:44.280 ,2,1,0.,24.0,0.,24.0,0.,24.0,0.,24.0
1979-07-12 15:34:08.280 ,6,1,0.,24.0,0.,24.0,0.,24.0,0.,24.0
1979-07-12 15:34:32.280 ,5,1,0.,24.0,0.,24.0,0.,24.0,0.,24.0
1979-07-12 15:34:56.280 ,1,1,0.,24.0,0.,24.0,0.,24.0,0.,24.0
1979-07-12 15:35:20.280 ,2,1,0.,24.0,0.,24.0,0.,24.0,0.,24.0
1979-07-12 15:35:44.280 ,6,1,0.,24.0,0.,24.0,0.,24.0,0.,24.0
1979-07-12 15:36:08.280 ,5,1,0.,24.0,0.,24.0,0.,24.0,0.,24.0
1979-07-12 15:36:32.280 ,1,1,0.,24.0,0.,24.0,0.,24.0,0.,24.0
1979-07-12 15:36:56.280 ,2,1,0.,24.0,0.,24.0,0.,24.0,0.,24.0
1979-07-12 15:37:20.280 ,0,0,0.,24.0,0.,24.0,0.,24.0,0.,24.0
1979-07-12 15:38:20.280 ,0,0,,0,,0,,0,,0
1979-07-12 15:38:32.280 ,0,0,0.,24.0,0.,24.0,0.,24.0,0.,24.0
1979-07-12 15:38:56.280 ,6,1,0.,24.0,0.,24.0,0.,24.0,0.,24.0
1979-07-12 15:39:20.280 ,5,1,0.,24.0,0.,24.0,0.,24.0,0.,24.0
1979-07-12 15:39:44.280 ,1,1,0.,24.0,0.,24.0,0.,24.0,0.,24.0
1979-07-12 15:40:08.280 ,2,1,0.,24.0,0.,24.0,0.,24.0,0.,24.0
1979-07-12 15:40:32.280 ,6,1,0.,24.0,0.,24.0,0.,24.0,0.,24.0
1979-07-12 15:40:56.280 ,5,1,0.,24.0,0.,24.0,0.,24.0,0.,24.0
1979-07-12 15:41:20.280 ,1,1,0.,24.0,0.,24.0,0.,24.0,0.,24.0
1979-07-12 15:41:44.280 ,0,0,0.,24.0,0.,24.0,0.,24.0,0.,24.0
1979-07-12 15:42:08.280 ,0,0,0.,24.0,0.,24.0,0.,24.0,0.,24.0
1979-07-12 15:42:32.280 ,5,1,0.,24.0,0.,24.0,0.,24.0,0.,24.0
1979-07-12 15:42:56.280 ,5,0,0.,24.0,0.,24.0,0.,24.0,0.,24.0
1979-07-12 15:43:20.280 ,4,1,0.,24.0,0.,24.0,0.,24.0,0.,24.0
1979-07-12 15:43:44.280 ,4,0,0.,24.0,0.,24.0,0.,24.0,0.,24.0
1979-07-12 15:44:08.280 ,3,1,0.,24.0,0.,24.0,0.,24.0,0.,24.0
1979-07-12 15:44:32.280 ,3,0,0.,24.0,0.,24.0,0.,24.0,0.,24.0
1979-07-12 15:44:56.280 ,2,1,0.,24.0,0.,24.0,0.,24.0,0.,24.0
1979-07-12 15:45:20.280 ,2,0,0.,24.0,0.,24.0,0.,24.0,0.,24.0
1979-07-12 15:45:44.280 ,1,1,0.,24.0,0.,24.0,0.,24.0,0.,24.0
1979-07-12 15:46:08.280 ,1,0,0.,24.0,0.,24.0,0.,24.0,0.,24.0
1979-07-12 15:46:32.280 ,0,1,0.,24.0,0.,24.0,0.,24.0,0.,24.0
1979-07-12 15:46:56.280 ,0,0,0.,24.0,0.,24.0,0.,24.0,0.,24.0
1979-07-12 15:47:20.280 ,0,1,0.,24.0,0.,24.0,0.,24.0,0.,24.0
1979-07-12 15:47:44.280 ,0,0,0.,24.0,0.,24.0,0.,24.0,0.,24.0
1979-07-12 15:48:08.280 ,1,1,0.,24.0,0.,24.0,0.,24.0,0.,24.0
1979-07-12 15:48:32.280 ,1,0,0.,24.0,0.,24.0,0.,24.0,0.,24.0
1979-07-12 15:48:56.280 ,2,1,0.,24.0,0.,24.0,0.,24.0,0.,24.0
1979-07-12 15:49:20.280 ,2,0,0.,24.0,0.,24.0,0.,24.0,0.,24.0
1979-07-12 15:49:44.280 ,3,1,0.,24.0,0.,24.0,0.,24.0,0.,24.0
1979-07-12 15:50:08.280 ,3,0,0.,24.0,0.,24.0,0.,24.0,0.,24.0
1979-07-12 15:50:32.280 ,4,1,0.,24.0,0.,24.0,0.,24.0,0.,24.0
1979-07-12 15:50:56.280 ,4,0,0.,24.0,0.,24.0,0.,24.0,0.,24.0
1979-07-12 15:51:20.280 ,5,1,0.,24.0,0.,24.0,0.,24.0,0.,24.0
1979-07-12 15:51:44.280 ,5,0,0.,24.0,0.,24.0,0.,24.0,0.,24.0
1979-07-12 15:52:08.280 ,6,1,0.,24.0,0.,24.0,0.,24.0,0.,24.0
1979-07-12 15:52:32.280 ,6,0,0.,24.0,0.,24.0,0.,24.0,0.,24.0
1979-07-12 15:52:56.280 ,7,1,0.,24.0,0.,24.0,0.,24.0,0.,24.0
1979-07-12 15:53:20.280 ,7,0,0.,24.0,0.,24.0,0.,24.0,0.,24.0
1979-07-12 15:53:44.280 ,7,1,0.,24.0,0.,24.0,0.,24.0,0.,24.0
1979-07-12 15:54:08.280 ,7,0,0.,24.0,0.,24.0,0.,24.0,0.,24.0
1979-07-12 15:54:32.280 ,6,1,0.,24.0,0.,24.0,0.,24.0,0.,24.0
1979-07-12 15:54:56.280 ,6,0,0.,24.0,0.,24.0,0.,24.0,0.,24.0
1979-07-12 15:55:20.280 ,5,1,0.,24.0,0.,24.0,0.,24.0,0.,24.0
1979-07-12 15:55:44.280 ,5,0,0.,24.0,0.,24.0,0.,24.0,0.,24.0
1979-07-12 15:56:08.280 ,4,1,0.,24.0,0.,24.0,0.,24.0,0.,24.0
1979-07-12 15:56:32.280 ,4,0,0.,24.0,0.,24.0,0.,24.0,0.,24.0
1979-07-12 15:56:56.280 ,3,1,0.,24.0,0.,24.0,0.,24.0,0.,24.0
1979-07-12 15:57:20.280 ,3,0,0.,24.0,0.,24.0,0.,24.0,0.,24.0
1979-07-12 15:57:44.280 ,2,1,0.,24.0,0.,24.0,0.,24.0,0.,24.0
1979-07-12 15:58:08.280 ,2,0,0.,24.0,0.,24.0,0.,24.0,0.,24.0
1979-07-12 15:58:32.270 ,1,1,0.,24.0,0.,24.0,0.,24.0,0.,24.0
1979-07-12 15:58:56.270 ,1,0,0.,24.0,0.,24.0,0.,24.0,0.,24.0
1979-07-12 15:59:20.270 ,0,1,0.,24.0,0.,24.0,0.,24.0,0.,24.0
1979-07-12 15:59:44.270 ,0,0,0.,24.0,0.,24.0,0.,24.0,0.,24.0
1979-07-12 16:00:08.280 ,0,1,0.,24.0,0.,24.0,0.,24.0,0.,24.0
1979-07-12 16:00:32.280 ,0,0,0.,24.0,0.,24.0,0.,24.0,0.,24.0
1979-07-12 16:00:56.280 ,1,1,0.,24.0,0.,24.0,0.,24.0,0.,24.0
1979-07-12 16:01:20.280 ,1,0,0.,24.0,0.,24.0,0.,24.0,0.,24.0
1979-07-12 16:01:44.280 ,2,1,0.,24.0,0.,24.0,0.,24.0,0.,24.0
1979-07-12 16:02:08.280 ,2,0,0.,24.0,0.,24.0,0.,24.0,0.,24.0
1979-07-12 16:02:32.280 ,3,1,0.,24.0,0.,24.0,0.,24.0,0.,24.0
1979-07-12 16:02:56.280 ,3,0,0.,24.0,0.,24.0,0.,24.0,0.,24.0
1979-07-12 16:03:20.280 ,4,1,0.,24.0,0.,24.0,0.,24.0,0.,24.0
1979-07-12 16:03:44.280 ,4,0,0.,24.0,0.,24.0,0.,24.0,0.,24.0
1979-07-12 16:04:08.280 ,5,1,0.,24.0,0.,24.0,0.,24.0,0.,24.0
1979-07-12 16:04:32.270 ,5,0,0.,24.0,0.,24.0,0.,24.0,0.,24.0
1979-07-12 16:04:56.270 ,6,1,0.,24.0,0.,24.0,0.,24.0,0.,24.0
1979-07-12 16:05:20.270 ,6,0,0.,24.0,0.,24.0,0.,24.0,0.,24.0
1979-07-12 16:05:44.270 ,7,1,0.,24.0,0.,24.0,0.,24.0,0.,24.0
1979-07-12 16:06:08.270 ,7,0,0.,24.0,0.,24.0,0.,24.0,0.,24.0
1979-07-12 16:06:32.270 ,7,1,0.,24.0,0.,24.0,0.,24.0,0.,24.0
1979-07-12 16:06:56.270 ,7,0,0.,24.0,0.,24.0,0.,24.0,0.,24.0
1979-07-12 16:07:20.270 ,6,1,0.,24.0,0.,24.0,0.,24.0,0.,24.0
1979-07-12 16:07:44.270 ,6,0,0.,24.0,0.,24.0,0.,24.0,0.,24.0
1979-07-12 16:08:08.270 ,5,1,0.,24.0,0.,24.0,0.,24.0,0.,24.0
1979-07-12 16:08:32.280 ,5,0,0.,24.0,0.,24.0,0.,24.0,0.,24.0
1979-07-12 16:08:56.280 ,4,1,0.,24.0,0.,24.0,0.,24.0,0.,24.0
1979-07-12 16:09:20.280 ,4,0,0.,24.0,0.,24.0,0.,24.0,0.,24.0
1979-07-12 16:09:44.280 ,3,1,0.,24.0,0.,24.0,0.,24.0,0.,24.0
1979-07-12 16:10:08.280 ,3,0,0.,24.0,0.,24.0,0.,24.0,0.,24.0
1979-07-12 16:10:32.280 ,2,1,0.,24.0,0.,24.0,0.,24.0,0.,24.0
1979-07-12 16:10:56.280 ,2,0,0.,24.0,0.,24.0,0.,24.0,0.,24.0
1979-07-12 16:11:20.280 ,1,1,0.,24.0,0.,24.0,0.,24.0,0.,24.0
1979-07-12 16:11:44.280 ,1,0,0.,24.0,0.,24.0,0.,24.0,0.,24.0
1979-07-12 16:12:08.280 ,0,1,0.,24.0,0.,24.0,0.,24.0,0.,24.0
1979-07-12 16:12:32.280 ,0,0,0.,24.0,0.,24.0,0.,24.0,0.,24.0
1979-07-12 16:12:56.280 ,0,1,0.,24.0,0.,24.0,0.,24.0,0.,24.0
1979-07-12 16:13:20.280 ,0,0,0.,24.0,0.,24.0,0.,24.0,0.,24.0
1979-07-12 16:13:44.280 ,1,1,0.,24.0,0.,24.0,0.,24.0,0.,24.0
1979-07-12 16:14:08.280 ,1,0,0.,24.0,0.,24.0,0.,24.0,0.,24.0
1979-07-12 16:14:32.280 ,2,1,0.,24.0,0.,24.0,0.,24.0,0.,24.0
1979-07-12 16:14:56.280 ,2,0,0.,24.0,0.,24.0,0.,24.0,0.,24.0
1979-07-12 16:15:20.280 ,3,1,0.,24.0,0.,24.0,0.,24.0,0.,24.0
1979-07-12 16:15:44.280 ,3,0,0.,24.0,0.,24.0,0.,24.0,0.,24.0
1979-07-12 16:16:08.280 ,4,1,0.,24.0,0.,24.0,0.,24.0,0.,24.0
1979-07-12 16:16:32.280 ,4,0,0.,24.0,0.,24.0,0.,24.0,0.,24.0
1979-07-12 16:16:56.280 ,5,1,0.,24.0,0.,24.0,0.,24.0,0.,24.0
1979-07-12 16:17:20.280 ,5,0,0.,24.0,0.,24.0,0.,24.0,0.,24.0
1979-07-12 16:17:44.280 ,6,1,0.,24.0,0.,24.0,0.,24.0,0.,24.0
1979-07-12 16:18:08.280 ,6,0,0.,24.0,0.,24.0,0.,24.0,0.,24.0
1979-07-12 16:18:32.280 ,7,0,0.,24.0,0.,24.0,0.,24.0,0.,24.0
1979-07-12 16:18:56.280 ,7,0,0.,24.0,0.,24.0,0.,24.0,0.,24.0
1979-07-12 16:19:20.280 ,5,1,0.,24.0,0.,24.0,0.,24.0,0.,24.0
1979-07-12 16:19:44.280 ,1,1,0.,24.0,0.,24.0,0.,24.0,0.,24.0
1979-07-12 16:20:08.280 ,2,1,0.,24.0,0.,24.0,0.,24.0,0.,24.0
1979-07-12 16:20:32.280 ,6,1,0.,24.0,0.,24.0,0.,24.0,0.,24.0
1979-07-12 16:20:56.280 ,5,1,0.,24.0,0.,24.0,0.,24.0,0.,24.0
1979-07-12 16:21:20.280 ,1,1,0.,24.0,0.,24.0,0.,24.0,0.,24.0
1979-07-12 16:21:44.280 ,2,1,0.,24.0,0.,24.0,0.,24.0,0.,24.0
1979-07-12 16:22:08.280 ,6,1,0.,24.0,0.,24.0,0.,24.0,0.,24.0
1979-07-12 16:22:32.280 ,5,1,0.,24.0,0.,24.0,0.,24.0,0.,24.0
1979-07-12 16:22:56.280 ,1,1,0.,24.0,0.,24.0,0.,24.0,0.,24.0
1979-07-12 16:23:20.280 ,2,1,0.,24.0,0.,24.0,0.,24.0,0.,24.0
1979-07-12 16:23:44.280 ,6,1,0.,24.0,0.,24.0,0.,24.0,0.,24.0
1979-07-12 16:24:08.280 ,5,1,0.,24.0,0.,24.0,0.,24.0,0.,24.0
1979-07-12 16:24:32.280 ,1,1,0.,24.0,0.,24.0,0.,24.0,0.,24.0
1979-07-12 16:24:56.280 ,2,1,0.,24.0,0.,24.0,0.,24.0,0.,24.0
1979-07-12 16:25:20.280 ,6,1,0.,24.0,0.,24.0,0.,24.0,0.,24.0
1979-07-12 16:25:44.270 ,5,1,0.,24.0,0.,24.0,0.,24.0,0.,24.0
1979-07-12 16:26:08.270 ,1,1,0.,24.0,0.,24.0,0.,24.0,0.,24.0
1979-07-12 16:26:32.270 ,2,1,0.,24.0,0.,24.0,0.,24.0,0.,24.0
1979-07-12 16:26:56.270 ,6,1,0.,24.0,0.,24.0,0.,24.0,0.,24.0
1979-07-12 16:27:20.270 ,5,1,0.,24.0,0.,24.0,0.,24.0,0.,24.0
1979-07-12 16:27:44.270 ,1,1,0.,24.0,0.,24.0,0.,24.0,0.,24.0
1979-07-12 16:28:08.270 ,2,1,0.,24.0,0.,24.0,0.,24.0,0.,24.0
1979-07-12 16:28:32.270 ,6,1,0.,24.0,0.,24.0,0.,24.0,0.,24.0
1979-07-12 16:28:56.270 ,5,1,0.,24.0,0.,24.0,0.,24.0,0.,24.0
1979-07-12 16:29:20.270 ,1,1,0.,24.0,0.,24.0,0.,24.0,0.,24.0
1979-07-12 16:29:44.270 ,0,0,0.,24.0,0.,24.0,0.,24.0,0.,24.0
1979-07-12 16:30:08.270 ,0,0,0.,24.0,0.,24.0,0.,24.0,0.,24.0
1979-07-12 16:30:32.270 ,5,1,0.,24.0,0.,24.0,0.,24.0,0.,24.0
1979-07-12 16:30:56.270 ,5,0,0.,24.0,0.,24.0,0.,24.0,0.,24.0
1979-07-12 16:31:20.270 ,4,1,0.,24.0,0.,24.0,0.,24.0,0.,24.0
1979-07-12 16:31:44.270 ,4,0,0.,24.0,0.,24.0,0.,24.0,0.,24.0
1979-07-12 16:32:08.270 ,3,1,0.,24.0,0.,24.0,0.,24.0,0.,24.0
1979-07-12 16:32:32.270 ,3,0,0.,24.0,0.,24.0,0.,24.0,0.,24.0
1979-07-12 16:32:56.270 ,2,1,0.,24.0,0.,24.0,0.,24.0,0.,24.0
1979-07-12 16:33:20.270 ,2,0,0.,24.0,0.,24.0,0.,24.0,0.,24.0
1979-07-12 16:33:44.270 ,1,1,0.,24.0,0.,24.0,0.,24.0,0.,24.0
1979-07-12 16:34:08.270 ,1,0,,0,,0,,0,,0
1979-07-12 16:34:32.270 ,0,1,0.,24.0,0.,24.0,0.,24.0,0.,24.0
1979-07-12 16:34:56.270 ,0,0,0.,24.0,0.,24.0,0.,24.0,0.,24.0
1979-07-12 16:35:20.270 ,0,1,0.,24.0,0.,24.0,0.,24.0,0.,24.0
1979-07-12 16:35:44.270 ,0,0,,0,,0,,0,,0
1979-07-12 16:36:08.270 ,1,1,0.,24.0,0.,24.0,0.,24.0,0.,24.0
1979-07-12 16:36:32.270 ,1,0,0.,24.0,0.,24.0,0.,24.0,0.,24.0
1979-07-12 16:36:56.270 ,2,1,0.,24.0,0.,24.0,0.,24.0,0.,24.0
1979-07-12 16:37:20.270 ,2,0,0.,24.0,0.,24.0,0.,24.0,0.,24.0
1979-07-12 16:37:44.270 ,3,1,0.,24.0,0.,24.0,0.,24.0,0.,24.0
1979-07-12 16:38:08.270 ,3,0,0.,24.0,0.,24.0,0.,24.0,0.,24.0
1979-07-12 16:38:32.270 ,4,1,0.,24.0,0.,24.0,0.,24.0,0.,24.0
1979-07-12 16:38:56.270 ,4,0,0.,24.0,0.,24.0,0.,24.0,0.,24.0
1979-07-12 16:39:20.270 ,5,1,0.,24.0,0.,24.0,0.,24.0,0.,24.0
1979-07-12 16:39:44.270 ,5,0,0.,24.0,0.,24.0,0.,24.0,0.,24.0
1979-07-12 16:40:08.270 ,6,1,0.,24.0,0.,24.0,0.,24.0,0.,24.0
1979-07-12 16:40:32.270 ,6,0,0.,24.0,0.,24.0,0.,24.0,0.,24.0
1979-07-12 16:40:56.270 ,7,1,0.,24.0,0.,24.0,0.,24.0,0.,24.0
1979-07-12 16:41:20.270 ,7,0,0.,24.0,0.,24.0,0.,24.0,0.,24.0
1979-07-12 16:41:44.270 ,7,1,0.,24.0,0.,24.0,0.,24.0,0.,24.0
1979-07-12 16:42:08.270 ,7,0,0.,24.0,0.,24.0,0.,24.0,0.,24.0
1979-07-12 16:42:32.270 ,6,1,0.,24.0,0.,24.0,0.,24.0,0.,24.0
1979-07-12 16:42:56.270 ,6,0,0.,24.0,0.,24.0,0.,24.0,0.,24.0
1979-07-12 16:43:20.270 ,5,1,0.,24.0,0.,24.0,0.,24.0,0.,24.0
1979-07-12 16:43:44.270 ,5,0,0.,24.0,0.,24.0,0.,24.0,0.,24.0
1979-07-12 16:44:08.270 ,4,1,0.,24.0,0.,24.0,0.,24.0,0.,24.0
1979-07-12 16:44:32.270 ,4,0,0.,24.0,0.,24.0,0.,24.0,0.,24.0
1979-07-12 16:44:56.270 ,3,1,0.,24.0,0.,24.0,0.,24.0,0.,24.0
1979-07-12 16:45:20.270 ,3,0,0.,24.0,0.,24.0,0.,24.0,0.,24.0
1979-07-12 16:45:44.270 ,2,1,0.,24.0,0.,24.0,0.,24.0,0.,24.0
1979-07-12 16:46:08.270 ,2,0,0.,24.0,0.,24.0,0.,24.0,0.,24.0
1979-07-12 16:46:32.270 ,1,1,0.,24.0,0.,24.0,0.,24.0,0.,24.0
1979-07-12 16:46:56.270 ,1,0,0.,24.0,0.,24.0,0.,24.0,0.,24.0
1979-07-12 16:47:20.270 ,0,1,0.,24.0,0.,24.0,0.,24.0,0.,24.0
1979-07-12 16:47:44.270 ,0,0,0.,24.0,0.,24.0,0.,24.0,0.,24.0
1979-07-12 16:48:08.270 ,0,1,0.,24.0,0.,24.0,0.,24.0,0.,24.0
1979-07-12 16:48:32.270 ,0,0,0.,24.0,0.,24.0,0.,24.0,0.,24.0
1979-07-12 16:48:56.270 ,1,1,0.,24.0,0.,24.0,0.,24.0,0.,24.0
1979-07-12 16:49:20.270 ,1,0,0.,24.0,0.,24.0,0.,24.0,0.,24.0
1979-07-12 16:49:44.270 ,2,1,0.,24.0,0.,24.0,0.,24.0,0.,24.0
1979-07-12 16:50:08.270 ,2,0,0.,24.0,0.,24.0,0.,24.0,0.,24.0
1979-07-12 16:50:32.270 ,3,1,0.,24.0,0.,24.0,0.,24.0,0.,24.0
1979-07-12 16:50:56.270 ,3,0,0.,24.0,0.,24.0,0.,24.0,0.,24.0
1979-07-12 16:51:20.270 ,4,1,0.,24.0,0.,24.0,0.,24.0,0.,24.0
1979-07-12 16:51:44.270 ,4,0,0.,24.0,0.,24.0,0.,24.0,0.,24.0
1979-07-12 16:52:08.270 ,5,1,0.,24.0,0.,24.0,0.,24.0,0.,24.0
1979-07-12 16:52:32.270 ,5,0,0.,24.0,0.,24.0,0.,24.0,0.,24.0
1979-07-12 16:52:56.270 ,6,1,0.,24.0,0.,24.0,0.,24.0,0.,24.0
1979-07-12 16:53:20.270 ,6,0,0.,24.0,0.,24.0,0.,24.0,0.,24.0
1979-07-12 16:53:44.270 ,7,1,0.,24.0,0.,24.0,0.,24.0,0.,24.0
1979-07-12 16:54:08.270 ,7,0,0.,24.0,0.,24.0,0.,24.0,0.,24.0
1979-07-12 16:54:32.270 ,7,1,0.,24.0,0.,24.0,0.,24.0,0.,24.0
1979-07-12 16:54:56.270 ,7,0,0.,24.0,0.,24.0,0.,24.0,0.,24.0
1979-07-12 16:55:20.270 ,6,1,0.,24.0,0.,24.0,0.,24.0,0.,24.0
1979-07-12 16:55:44.270 ,6,0,0.,24.0,0.,24.0,0.,24.0,0.,24.0
1979-07-12 16:56:08.270 ,5,1,0.,24.0,0.,24.0,0.,24.0,0.,24.0
1979-07-12 16:56:32.270 ,5,0,0.,24.0,0.,24.0,0.,24.0,0.,24.0
1979-07-12 16:56:56.270 ,4,1,0.,24.0,0.,24.0,0.,24.0,0.,24.0
1979-07-12 16:57:20.270 ,4,0,0.,24.0,0.,24.0,0.,24.0,0.,24.0
1979-07-12 16:57:44.270 ,3,1,0.,24.0,0.,24.0,0.,24.0,0.,24.0
1979-07-12 16:58:08.270 ,3,0,0.,24.0,0.,24.0,0.,24.0,0.,24.0
1979-07-12 16:58:32.270 ,2,1,0.,24.0,0.,24.0,0.,24.0,0.,24.0
1979-07-12 16:58:56.270 ,2,0,0.,24.0,0.,24.0,0.,24.0,0.,24.0
1979-07-12 16:59:20.270 ,1,1,0.,24.0,0.,24.0,0.,24.0,0.,24.0
1979-07-12 16:59:44.270 ,1,0,0.,24.0,0.,24.0,0.,24.0,0.,24.0
1979-07-12 17:00:08.270 ,0,1,0.,24.0,0.,24.0,0.,24.0,0.,24.0
1979-07-12 17:00:32.270 ,0,0,0.,24.0,0.,24.0,0.,24.0,0.,24.0
1979-07-12 17:00:56.270 ,0,1,0.,24.0,0.,24.0,0.,24.0,0.,24.0
1979-07-12 17:01:20.270 ,0,0,0.,24.0,0.,24.0,0.,24.0,0.,24.0
1979-07-12 17:01:44.270 ,1,1,0.,24.0,0.,24.0,0.,24.0,0.,24.0
1979-07-12 17:02:08.270 ,1,0,0.,24.0,0.,24.0,0.,24.0,0.,24.0
1979-07-12 17:02:32.270 ,2,1,0.,24.0,0.,24.0,0.,24.0,0.,24.0
1979-07-12 17:02:56.270 ,2,0,0.,24.0,0.,24.0,0.,24.0,0.,24.0
1979-07-12 17:03:20.270 ,3,1,0.,24.0,0.,24.0,0.,24.0,0.,24.0
1979-07-12 17:03:44.270 ,3,0,0.,24.0,0.,24.0,0.,24.0,0.,24.0
1979-07-12 17:04:08.270 ,4,1,0.,24.0,0.,24.0,0.,24.0,0.,24.0
1979-07-12 17:04:32.270 ,4,0,0.,24.0,0.,24.0,0.,24.0,0.,24.0
1979-07-12 17:04:56.270 ,5,1,0.,24.0,0.,24.0,0.,24.0,0.,24.0
1979-07-12 17:05:20.270 ,5,0,0.,24.0,0.,24.0,0.,24.0,0.,24.0
1979-07-12 17:05:44.270 ,6,1,0.,24.0,0.,24.0,0.,24.0,0.,24.0
1979-07-12 17:06:08.270 ,6,0,0.,24.0,0.,24.0,0.,24.0,0.,24.0
1979-07-12 17:06:32.270 ,7,0,0.,24.0,0.,24.0,0.,24.0,0.,24.0
1979-07-12 17:06:56.270 ,7,0,0.,24.0,0.,24.0,0.,24.0,0.,24.0
1979-07-12 17:07:20.270 ,5,1,0.,24.0,0.,24.0,0.,24.0,0.,24.0
1979-07-12 17:07:44.270 ,1,1,0.,24.0,0.,24.0,0.,24.0,0.,24.0
1979-07-12 17:08:08.270 ,2,1,0.,24.0,0.,24.0,0.,24.0,0.,24.0
1979-07-12 17:08:32.270 ,6,1,0.,24.0,0.,24.0,0.,24.0,0.,24.0
1979-07-12 17:08:56.270 ,5,1,0.,24.0,0.,24.0,0.,24.0,0.,24.0
1979-07-12 17:09:20.270 ,1,1,0.,24.0,0.,24.0,0.,24.0,0.,24.0
1979-07-12 17:09:44.270 ,2,1,0.,24.0,0.,24.0,0.,24.0,0.,24.0
1979-07-12 17:10:08.270 ,6,1,0.,24.0,0.,24.0,0.,24.0,0.,24.0
1979-07-12 17:10:32.270 ,5,1,0.,24.0,0.,24.0,0.,24.0,0.,24.0
1979-07-12 17:10:56.270 ,1,1,0.,24.0,0.,24.0,0.,24.0,0.,24.0
1979-07-12 17:11:20.270 ,2,1,0.,24.0,0.,24.0,0.,24.0,0.,24.0
1979-07-12 17:11:44.270 ,6,1,0.,24.0,0.,24.0,0.,24.0,0.,24.0
1979-07-12 17:12:08.270 ,5,1,0.,24.0,0.,24.0,0.,24.0,0.,24.0
1979-07-12 17:12:32.270 ,1,1,0.,24.0,0.,24.0,0.,24.0,0.,24.0
1979-07-12 17:12:56.270 ,2,1,0.,24.0,0.,24.0,0.,24.0,0.,24.0
1979-07-12 17:13:20.270 ,6,1,0.,24.0,0.,24.0,0.,24.0,0.,24.0
1979-07-12 17:13:44.270 ,5,1,0.,24.0,0.,24.0,0.,24.0,0.,24.0
1979-07-12 17:14:08.270 ,1,1,0.,24.0,0.,24.0,0.,24.0,0.,24.0
1979-07-12 17:14:32.270 ,2,1,0.,24.0,0.,24.0,0.,24.0,0.,24.0
1979-07-12 17:14:56.270 ,6,1,0.,24.0,0.,24.0,0.,24.0,0.,24.0
1979-07-12 17:15:20.270 ,5,1,0.,24.0,0.,24.0,0.,24.0,0.,24.0
1979-07-12 17:15:44.270 ,1,1,0.,24.0,0.,24.0,0.,24.0,0.,24.0
1979-07-12 17:16:08.270 ,2,1,0.,24.0,0.,24.0,0.,24.0,0.,24.0
1979-07-12 17:16:32.270 ,6,1,0.,24.0,0.,24.0,0.,24.0,0.,24.0
1979-07-12 17:16:56.270 ,5,1,0.,24.0,0.,24.0,0.,24.0,0.,24.0
1979-07-12 17:17:20.270 ,1,1,0.,24.0,0.,24.0,0.,24.0,0.,24.0
1979-07-12 17:17:44.270 ,0,0,0.,24.0,0.,24.0,0.,24.0,0.,24.0
1979-07-12 17:18:08.270 ,0,0,0.,24.0,0.,24.0,0.,24.0,0.,24.0
1979-07-12 17:18:32.270 ,5,1,0.,24.0,0.,24.0,0.,24.0,0.,24.0
1979-07-12 17:18:56.270 ,5,0,0.,24.0,0.,24.0,0.,24.0,0.,24.0
1979-07-12 17:19:20.270 ,4,1,0.,24.0,0.,24.0,0.,24.0,0.,24.0
1979-07-12 17:19:44.270 ,4,0,0.,24.0,0.,24.0,0.,24.0,0.,24.0
1979-07-12 17:20:08.270 ,3,1,0.,24.0,0.,24.0,0.,24.0,0.,24.0
1979-07-12 17:20:32.270 ,3,0,0.,24.0,0.,24.0,0.,24.0,0.,24.0
1979-07-12 17:20:56.270 ,2,1,0.,24.0,0.,24.0,0.,24.0,0.,24.0
1979-07-12 17:21:20.270 ,2,0,0.,24.0,0.,24.0,0.,24.0,0.,24.0
1979-07-12 17:21:44.270 ,1,1,0.,24.0,0.,24.0,0.,24.0,0.,24.0
1979-07-12 17:22:08.270 ,1,0,0.,24.0,0.,24.0,0.,24.0,0.,24.0
1979-07-12 17:22:32.270 ,0,1,0.,24.0,0.,24.0,0.,24.0,0.,24.0
1979-07-12 17:22:56.270 ,0,0,0.,24.0,0.,24.0,0.,24.0,0.,24.0
1979-07-12 17:23:20.270 ,0,1,0.,24.0,0.,24.0,0.,24.0,0.,24.0
1979-07-12 17:23:44.270 ,0,0,0.,24.0,0.,24.0,0.,24.0,0.,24.0
1979-07-12 17:24:08.270 ,1,1,0.,24.0,0.,24.0,0.,24.0,0.,24.0
1979-07-12 17:24:32.270 ,1,0,0.,24.0,0.,24.0,0.,24.0,0.,24.0
1979-07-12 17:24:56.270 ,2,1,0.,24.0,0.,24.0,0.,24.0,0.,24.0
1979-07-12 17:25:20.270 ,2,0,0.,24.0,0.,24.0,0.,24.0,0.,24.0
1979-07-12 17:25:44.270 ,3,1,0.,24.0,0.,24.0,0.,24.0,0.,24.0
1979-07-12 17:26:08.270 ,3,0,0.,24.0,0.,24.0,0.,24.0,0.,24.0
1979-07-12 17:26:32.270 ,4,1,0.,24.0,0.,24.0,0.,24.0,0.,24.0
1979-07-12 17:26:56.270 ,4,0,0.,24.0,0.,24.0,0.,24.0,0.,24.0
1979-07-12 17:27:20.270 ,5,1,0.,24.0,0.,24.0,0.,24.0,0.,24.0
1979-07-12 17:27:44.270 ,5,0,0.,24.0,0.,24.0,0.,24.0,0.,24.0
1979-07-12 17:28:08.270 ,6,1,0.,24.0,0.,24.0,0.,24.0,0.,24.0
1979-07-12 17:28:32.270 ,6,0,0.,24.0,0.,24.0,0.,24.0,0.,24.0
1979-07-12 17:28:56.270 ,7,1,0.,24.0,0.,24.0,0.,24.0,0.,24.0
1979-07-12 17:29:20.270 ,7,0,0.,24.0,0.,24.0,0.,24.0,0.,24.0
1979-07-12 17:29:44.270 ,7,1,0.,24.0,0.,24.0,0.,24.0,0.,24.0
1979-07-12 17:30:08.270 ,7,0,0.,24.0,0.,24.0,0.,24.0,0.,24.0
1979-07-12 17:30:32.270 ,6,1,0.,24.0,0.,24.0,0.,24.0,0.,24.0
1979-07-12 17:30:56.270 ,6,0,0.,24.0,0.,24.0,0.,24.0,0.,24.0
1979-07-12 17:31:20.270 ,5,1,0.,24.0,0.,24.0,0.,24.0,0.,24.0
1979-07-12 17:31:44.270 ,5,0,0.,24.0,0.,24.0,0.,24.0,0.,24.0
1979-07-12 17:32:08.270 ,4,1,0.,24.0,0.,24.0,0.,24.0,0.,24.0
1979-07-12 17:32:32.270 ,4,0,0.,24.0,0.,24.0,0.,24.0,0.,24.0
1979-07-12 17:32:56.270 ,3,1,0.,24.0,0.,24.0,0.,24.0,0.,24.0
1979-07-12 17:33:20.270 ,3,0,0.,24.0,0.,24.0,0.,24.0,0.,24.0
1979-07-12 17:33:44.270 ,2,1,0.,24.0,0.,24.0,0.,24.0,0.,24.0
1979-07-12 17:34:08.270 ,2,0,0.,24.0,0.,24.0,0.,24.0,0.,24.0
1979-07-12 17:34:32.270 ,1,1,0.,24.0,0.,24.0,0.,24.0,0.,24.0
1979-07-12 17:34:56.270 ,1,0,0.,24.0,0.,24.0,0.,24.0,0.,24.0
1979-07-12 17:35:20.270 ,0,1,0.,24.0,0.,24.0,0.,24.0,0.,24.0
1979-07-12 17:35:44.270 ,0,0,0.,24.0,0.,24.0,0.,24.0,0.,24.0
1979-07-12 17:36:08.270 ,0,1,0.,24.0,0.,24.0,0.,24.0,0.,24.0